CW1172 Uddevalla SE current weather conditions

sailwx.info

Wind from 233 at 6 knots

Air temperature 3.9° C
Dewpoint 3.3° C

Last reported at 2020-Feb-19 01:00 UTC.
Time now 2020-Feb-19 01:41 UTC

Location: N 58°13' E 011°56'.
View on Google Maps.

See reports from other nearby stations

  
Tides and Currents Weather Stations Pressure Air Temp Water Temp Dewpoint Dewpoint Depression Visibility Wind Speed Wind Dir Waves Ship Positions
date/time (UTC)wind fromknots sea level pressurealtimeterstation pressurevisibilityair tempwater tempwave heightnotes
2020-Feb-19 01:00 233 6 3.9
2020-Feb-19 00:45 223 7 4.4
2020-Feb-19 00:30 193 6 4.4
2020-Feb-19 00:15 185 7 4.4
2020-Feb-19 00:00 212 6 4.4
2020-Feb-18 23:45 217 6 4.4
2020-Feb-18 23:30 232 6 4.4
2020-Feb-18 23:15 209 5 4.4
2020-Feb-18 23:02 220 5 4.4
2020-Feb-18 22:47 202 6 4.4
2020-Feb-18 22:31 217 6 4.4
2020-Feb-18 22:16 243 6 4.4
2020-Feb-18 22:02 272 3 4.4
2020-Feb-18 21:46 224 3 4.4
2020-Feb-18 21:31 243 2 5.0
2020-Feb-18 21:17 189 6 5.0
2020-Feb-18 21:01 246 6 5.0
2020-Feb-18 20:46 239 6 5.0
2020-Feb-18 20:31 240 8 5.0
2020-Feb-18 20:15 209 7 5.6
2020-Feb-18 20:01 239 6 5.6
2020-Feb-18 19:46 248 6 5.6
2020-Feb-18 19:31 311 6 5.6
2020-Feb-18 19:16 241 6 5.0
2020-Feb-18 19:01 246 5 5.0
2020-Feb-18 18:47 220 5 5.0
2020-Feb-18 18:31 181 6 5.0
2020-Feb-18 18:16 263 6 5.0
2020-Feb-18 18:01 254 4 5.0
2020-Feb-18 17:47 212 8 5.6
2020-Feb-18 17:31 256 6 5.0
2020-Feb-18 17:16 241 6 5.0
2020-Feb-18 17:01 251 10 5.0
2020-Feb-18 16:46 289 6 5.6
2020-Feb-18 16:31 253 6 5.6
2020-Feb-18 16:17 209 7 5.6
2020-Feb-18 16:00 272 7 5.6
2020-Feb-18 15:47 260 10 5.6
2020-Feb-18 15:31 247 8 5.6
2020-Feb-18 15:16 241 10 5.6
2020-Feb-18 15:01 270 13 6.1
2020-Feb-18 14:46 193 7 6.1
2020-Feb-18 14:31 254 7 6.1
2020-Feb-18 14:16 272 9 6.1
2020-Feb-18 14:01 277 6 6.7
2020-Feb-18 13:47 301 6 6.7
2020-Feb-18 13:31 212 7 6.7
2020-Feb-18 13:16 258 6 6.7
2020-Feb-18 13:01 304 6 6.7
2020-Feb-18 12:46 229 9 6.7
2020-Feb-18 12:30 224 6 6.7
2020-Feb-18 12:16 239 7 6.7
2020-Feb-18 12:01 292 8 6.7
2020-Feb-18 11:45 241 8 6.7
2020-Feb-18 11:31 239 6 6.7
2020-Feb-18 11:16 232 7 6.7
2020-Feb-18 11:00 243 8 6.1
2020-Feb-18 10:46 260 9 6.1
2020-Feb-18 10:31 213 8 6.1
2020-Feb-18 10:16 246 9 6.1
2020-Feb-18 10:01 209 10 6.1
2020-Feb-18 09:46 241 7 6.1
2020-Feb-18 09:30 258 8 5.6
2020-Feb-18 09:15 234 6 5.6
2020-Feb-18 09:00 185 8 5.6
2020-Feb-18 08:45 243 11 5.6
2020-Feb-18 08:31 219 8 5.6
2020-Feb-18 08:16 198 9 5.6
2020-Feb-18 08:01 275 9 5.6
2020-Feb-18 07:45 205 10 5.6
2020-Feb-18 07:30 271 7 5.6
2020-Feb-18 07:16 253 8 5.0
2020-Feb-18 07:01 198 10 5.6
2020-Feb-18 06:45 257 9 5.6
2020-Feb-18 06:30 251 12 5.6
2020-Feb-18 06:15 237 13 5.6
2020-Feb-18 06:00 215 11 5.6
2020-Feb-18 05:45 251 10 5.6
2020-Feb-18 05:30 176 10 5.6
2020-Feb-18 05:15 301 10 5.6
2020-Feb-18 05:00 264 11 5.6
2020-Feb-18 04:45 223 12 6.1
2020-Feb-18 04:30 193 11 6.1
2020-Feb-18 04:15 176 10 6.1
2020-Feb-18 04:00 223 10 6.1
2020-Feb-18 03:45 241 11 6.1
2020-Feb-18 03:31 258 10 6.1
2020-Feb-18 03:16 247 10 6.1
2020-Feb-18 03:01 206 11 6.7
2020-Feb-18 02:45 244 11 6.1
2020-Feb-18 02:31 233 10 6.1
2020-Feb-18 02:17 193 7 6.1
2020-Feb-18 02:01 224 7 6.7
2020-Feb-18 01:47 239 10 6.7
2020-Feb-18 01:31 241 10 6.7
2020-Feb-18 01:16 244 9 6.7
2020-Feb-18 01:01 243 11 6.7
2020-Feb-18 00:45 181 9 6.7
2020-Feb-18 00:30 248 10 6.7
2020-Feb-18 00:16 243 9 6.7
2020-Feb-18 00:00 254 9 6.7
2020-Feb-17 23:46 233 9 6.7
2020-Feb-17 23:30 295 8 6.7
2020-Feb-17 23:15 257 9 6.7
2020-Feb-17 23:00 219 10 6.7
2020-Feb-17 22:45 184 10 6.7
2020-Feb-17 22:30 223 8 6.7
2020-Feb-17 22:16 257 9 6.7
2020-Feb-17 22:00 230 9 6.7
2020-Feb-17 21:45 258 8 6.7
2020-Feb-17 21:30 003 7 6.7
2020-Feb-17 21:15 257 10 6.7
2020-Feb-17 21:00 193 10 6.7
2020-Feb-17 20:45 216 10 6.7
2020-Feb-17 20:30 246 10 6.7
2020-Feb-17 20:15 233 12 6.7
2020-Feb-17 20:00 229 13 6.7
2020-Feb-17 19:45 210 11 6.7
2020-Feb-17 19:30 260 13 6.7
2020-Feb-17 19:15 237 13 6.7
2020-Feb-17 19:00 232 12 6.7
2020-Feb-17 18:45 241 15 6.7
2020-Feb-17 18:30 233 15 6.7
2020-Feb-17 18:16 223 13 6.7
2020-Feb-17 18:00 248 13 6.7
2020-Feb-17 17:45 256 14 6.7
2020-Feb-17 17:30 239 12 6.7
2020-Feb-17 17:15 247 13 6.1
2020-Feb-17 17:00 257 13 6.1
2020-Feb-17 16:45 212 13 6.1
2020-Feb-17 16:30 270 12 6.1
2020-Feb-17 16:00 174 13 6.1
2020-Feb-17 15:45 229 12 6.1
2020-Feb-17 15:30 219 11 6.1
2020-Feb-17 15:15 224 12 6.1
2020-Feb-17 15:00 227 13 5.6
2020-Feb-17 14:45 203 11 5.6
2020-Feb-17 14:30 227 10 5.6
2020-Feb-17 14:01 227 14 5.6
2020-Feb-17 13:46 220 14 5.6
2020-Feb-17 13:32 229 11 5.6
2020-Feb-17 13:16 268 13 5.6
2020-Feb-17 13:02 206 12 5.6
2020-Feb-17 12:47 209 10 5.6
2020-Feb-17 12:31 209 11 5.6
2020-Feb-17 12:16 216 13 5.6
2020-Feb-17 12:01 169 12 5.6
2020-Feb-17 11:46 206 13 5.6
2020-Feb-17 11:30 254 10 5.6
2020-Feb-17 11:16 192 10 5.6
2020-Feb-17 11:01 232 11 5.0
2020-Feb-17 10:47 206 10 5.0
2020-Feb-17 10:31 208 13 5.6
2020-Feb-17 10:15 224 10 5.6
2020-Feb-17 10:01 209 11 5.0
2020-Feb-17 09:45 226 10 5.0
2020-Feb-17 09:31 216 10 5.0
2020-Feb-17 09:16 222 13 5.6
2020-Feb-17 09:00 210 13 5.6
2020-Feb-17 08:46 210 14 5.6
2020-Feb-17 08:31 167 12 5.6
2020-Feb-17 08:16 240 14 5.6
2020-Feb-17 08:00 216 12 6.1
2020-Feb-17 07:46 212 14 6.1
2020-Feb-17 07:31 184 13 6.1
2020-Feb-17 07:17 188 11 5.6
2020-Feb-17 07:02 222 13 5.6
2020-Feb-17 06:45 256 11 5.6
2020-Feb-17 06:30 251 13 5.0
2020-Feb-17 06:16 263 12 5.0
2020-Feb-17 06:01 272 9 5.0
2020-Feb-17 05:45 263 13 5.6
2020-Feb-17 05:30 227 8 5.0
2020-Feb-17 05:16 229 10 5.0
2020-Feb-17 05:01 220 13 6.1
2020-Feb-17 04:46 256 11 6.1
2020-Feb-17 04:30 246 10 6.1
2020-Feb-17 04:15 239 8 6.1
2020-Feb-17 04:00 271 9 6.1
2020-Feb-17 03:46 244 12 6.1
2020-Feb-17 03:30 212 10 5.6
2020-Feb-17 03:15 260 12 5.6
2020-Feb-17 03:00 215 9 5.6
2020-Feb-17 02:45 198 11 5.6
2020-Feb-17 02:30 215 9 5.6
2020-Feb-17 02:15 233 12 6.1
2020-Feb-17 02:00 233 10 5.6
2020-Feb-17 01:45 253 9 5.6
2020-Feb-17 01:30 208 9 5.6
2020-Feb-17 01:15 195 9 5.6
2020-Feb-17 01:00 224 10 5.6